Weather in Tatevo

Russia / Tver Oblast     56°09′52″N   33°21′27″E
temp.,
°C
wind,
m/s
gust,
m/s
humid.,
%
clouds,
%
prec.,
mm/h
press.,
hPa
HPBL,
m
17 april, sat
sat1700:00+9ene5128489 0.0 1021691
03:00+8ene51188100 0.0 1021539
06:00+8ene51190100 0.1 1021642
09:00+8ene4988100 0.2 1022500
12:00+9ene4883100 0.0 1023639
15:00+12ne5971100 0.0 10221098
18:00+13ene6116454 0.0 10211212
21:00+10ene6146928 0.0 1021840
18 april, sun
sun1800:00+8ne5136753 0.0 1021643
03:00+6ne5136855 0.0 1022562
06:00+5ne5137458 0.0 1022545
09:00+7ene611645 0.0 1022735
12:00+11ene6953100 0.0 10221216
15:00+11e51054100 0.0 10221599
18:00+9ese486784 0.0 10231134
21:00+6e3118295 0.0 1024587
19 april, mon
mon1900:00+6e51280100 0.0 1024831
03:00+5ene31088100 0.0 1025593
06:00+5ne3108588 0.0 1025551
09:00+7ene497888 0.0 1025754
12:00+8ene5972100 0.0 10251138
15:00+7e4879100 0.1 10251057
18:00+6e41088100 0.2 10241077
21:00+6ene51084100 0.3 10241007
20 april, tue
tue2000:00+5ene41093100 0.1 10231044
03:00+4ene51095100 0.3 1022791
06:00+3ene5118494 0.0 1021659
09:00+4ene5108197 0.0 1019712
12:00+4e51186100 0.1 1018849
15:00+3ene51396100 1.6 1015670
18:00+2ne61497100 3.6 1012730
21:00+2ne61697100 8.3 1006893
21 april, wed
wed2100:00+4ene61597100 6.4 10011206
03:00+5ene61494100 10.5 997928
06:00+6e61497100 0.3 995794
09:00+7e51193100 0.4 9931088
12:00+2ese4997100 2.9 994680
15:00+2s2599100 4.0 995372
18:00+2sw71397100 1.1 998733
21:00+3sw61197100 2.7 1003944